Location: Unspecified
(0.0000°N, 0.0000°E)
Time: 23:59:31
(UTC+00:00)

Tiangong - Pass Details

Date: 17 January 2022
Orbit: 381 x 387 km, 41.5° (Epoch: 27 January)

Event Time Altitude Azimuth Distance (km) Brightness Sun altitude
Rises 20:04:28 0° 235° (SW) 2,261 6.2 -26.6°
Reaches altitude 10° 20:06:35 10° 241° (WSW) 1,404 4.9 -27.1°
Enters shadow 20:07:42 19° 249° (WSW) 979 3.9 -27.3°
